This is the latest recevied weather packets stored in our database for station/object K4CRS-13. If no packets are shown the sender has not sent any weather packets the latest 10 day(s).
| Time | Temp. | Humidity | Pressure | Rain* | Wind** | Luminosity | Snow |
|---|---|---|---|---|---|---|---|
| 1777559568 | 14.44° C | 74% | 1050.1 hPa | 0 mm | - | 295 W/m² | - |
| 1777559266 | 13.89° C | 72% | 1050.1 hPa | 0 mm | - | 426 W/m² | - |
| 1777558961 | 13.89° C | 73% | 1050.2 hPa | 0 mm | - | 546 W/m² | - |
| 1777558657 | 13.89° C | 74% | 1050.3 hPa | 0 mm | - | 534 W/m² | - |
| 1777558352 | 13.89° C | 74% | 1050.3 hPa | 0 mm | - | 462 W/m² | - |
| 1777558050 | 13.89° C | 75% | 1050 hPa | 0 mm | - | 486 W/m² | - |
| 1777557746 | 13.33° C | 77% | 1050.1 hPa | 0 mm | - | 398 W/m² | - |
| 1777557443 | 13.33° C | 77% | 1050.1 hPa | 0 mm | - | 434 W/m² | - |
| 1777557140 | 13.33° C | 77% | 1049.9 hPa | 0 mm | - | 446 W/m² | - |
| 1777556840 | 13.33° C | 77% | 1050.1 hPa | 0 mm | - | 342 W/m² | - |
| 1777556537 | 13.33° C | 79% | 1050 hPa | 0 mm | - | 370 W/m² | - |
| 1777556236 | 12.78° C | 81% | 1049.9 hPa | 0 mm | - | 304 W/m² | - |
| 1777555932 | 12.78° C | 81% | 1050.1 hPa | 0 mm | - | 329 W/m² | - |
| 1777555628 | 12.78° C | 82% | 1050 hPa | 0 mm | - | 235 W/m² | - |
| 1777555325 | 12.22° C | 84% | 1049.8 hPa | 0 mm | - | 196 W/m² | - |
| 1777555021 | 12.78° C | 84% | 1049.7 hPa | 0 mm | - | 175 W/m² | - |
| 1777554718 | 12.22° C | 84% | 1050 hPa | 0 mm | - | 193 W/m² | - |
| 1777554415 | 12.22° C | 85% | 1050 hPa | 0 mm | - | 200 W/m² | - |
| 1777554112 | 12.22° C | 85% | 1050 hPa | 0 mm | - | 145 W/m² | - |
| 1777553809 | 11.67° C | 87% | 1049.8 hPa | 0 mm | - | 152 W/m² | - |
| 1777553505 | 11.67° C | 87% | 1050 hPa | 0 mm | - | 136 W/m² | - |
| 1777553201 | 11.67° C | 87% | 1050.2 hPa | 0 mm | - | 118 W/m² | - |
| 1777552897 | 11.67° C | 87% | 1049.8 hPa | 0 mm | - | 100 W/m² | - |
| 1777552592 | 11.67° C | 88% | 1049.8 hPa | 0 mm | - | 113 W/m² | - |
| 1777552289 | 11.67° C | 88% | 1050.1 hPa | 0 mm | - | 112 W/m² | - |
* Rain latest hour (hover to see other rain measurements)
** Current wind speed in m/s (hover to see current wind gust speed)